| time (UTC) | temp F | wind direction | speed knots | gust knots | rain 1hr in | rain 24hr in | rain mn in | humidity % | barometer mb |
| 20260901021940 | 73 | 292 | 1.7 | 2.6 | 0.00 | 0.00 | 0.00 | 9 | 1014.4 |
| 20260901021522 | 73 | 292 | 1.7 | 1.7 | 0.00 | 0.00 | 0.00 | 9 | 1014.6 |
| 20260901021037 | 73 | 292 | 0.9 | 1.7 | 0.00 | 0.00 | 0.00 | 9 | 1014.4 |
| 20260901020620 | 73 | 270 | 0.9 | 1.7 | 0.00 | 0.00 | 0.00 | 9 | 1014.3 |
| 20260901020155 | 74 | 292 | 0.0 | 0.9 | 0.00 | 0.00 | 0.00 | 9 | 1014.4 |
| 20260901015700 | 74 | 292 | 0.0 | 0.9 | 0.00 | 0.00 | 0.00 | 9 | 1014.4 |
| 20260901015350 | 74 | 292 | 0.0 | 0.9 | 0.00 | 0.00 | 0.00 | 9 | 1014.6 |
| 20260901015259 | 74 | 292 | 1.7 | 2.6 | 0.00 | 0.00 | 0.00 | 9 | 1014.5 |
| 20260901014906 | 74 | 292 | 1.7 | 2.6 | 0.00 | 0.00 | 0.00 | 9 | 1014.5 |
| 20260901014448 | 73 | 292 | 1.7 | 1.7 | 0.00 | 0.00 | 0.00 | 9 | 1014.6 |
| 20260901014336 | 73 | 292 | 1.7 | 1.7 | 0.00 | 0.00 | 0.00 | 9 | 1014.7 |
| 20260901014030 | 73 | 292 | 1.7 | 2.6 | 0.00 | 0.00 | 0.00 | 9 | 1014.7 |
| 20260901013510 | 74 | 292 | 0.9 | 1.7 | 0.00 | 0.00 | 0.00 | 9 | 1014.9 |
| 20260901013103 | 74 | 292 | 0.9 | 1.7 | 0.00 | 0.00 | 0.00 | 9 | 1014.9 |
| 20260901012655 | 74 | 292 | 1.7 | 2.6 | 0.00 | 0.00 | 0.00 | 9 | 1014.8 |
| 20260901012441 | 74 | 292 | 1.7 | 2.6 | 0.00 | 0.00 | 0.00 | 9 | 1014.8 |
| 20260901012000 | 74 | 315 | 1.7 | 1.7 | 0.00 | 0.00 | 0.00 | 9 | 1014.9 |
| 20260901011506 | 74 | 0 | 0.0 | 0.0 | 0.00 | 0.00 | 0.00 | 9 | 1014.8 |
| 20260901011040 | 74 | 292 | 0.9 | 1.7 | 0.00 | 0.00 | 0.00 | 9 | 1014.9 |
| 20260901010621 | 75 | 292 | 0.9 | 1.7 | 0.00 | 0.00 | 0.00 | 9 | 1014.9 |
| 20260901010156 | 75 | 292 | 1.7 | 2.6 | 0.00 | 0.00 | 0.00 | 9 | 1015.0 |
| 20260901005701 | 74 | 292 | 0.9 | 0.9 | 0.00 | 0.00 | 0.00 | 9 | 1015.0 |
| 20260901005439 | 75 | 292 | 0.9 | 1.7 | 0.00 | 0.00 | 0.00 | 9 | 1015.0 |
| 20260901004943 | 75 | 270 | 1.7 | 1.7 | 0.00 | 0.00 | 0.00 | 9 | 1014.9 |
| 20260901004648 | 75 | 292 | 1.7 | 1.7 | 0.00 | 0.00 | 0.00 | 9 | 1015.1 |
| 20260901004500 | 75 | 292 | 0.9 | 1.7 | 0.00 | 0.00 | 0.00 | 9 | 1015.2 |
| 20260901004035 | 75 | 292 | 0.9 | 1.7 | 0.00 | 0.00 | 0.00 | 9 | 1015.2 |
| 20260901003649 | 75 | 270 | 1.7 | 1.7 | 0.00 | 0.00 | 0.00 | 9 | 1015.3 |
| 20260901003616 | 75 | 270 | 1.7 | 1.7 | 0.00 | 0.00 | 0.00 | 9 | 1015.3 |
| 20260901003151 | 75 | 270 | 1.7 | 2.6 | 0.00 | 0.00 | 0.00 | 9 | 1015.1 |
| 20260901002658 | 75 | 292 | 1.7 | 1.7 | 0.00 | 0.00 | 0.00 | 9 | 1015.0 |
| 20260901002656 | 75 | 292 | 1.7 | 1.7 | 0.00 | 0.00 | 0.00 | 9 | 1015.0 |
| 20260901002501 | 75 | 270 | 2.6 | 2.6 | 0.00 | 0.00 | 0.00 | 9 | 1015.0 |
| 20260901002354 | 75 | 270 | 2.6 | 2.6 | 0.00 | 0.00 | 0.00 | 9 | 1015.2 |
| 20260901001919 | 75 | 315 | 0.9 | 1.7 | 0.00 | 0.00 | 0.00 | 9 | 1015.1 |
| 20260901001534 | 75 | 315 | 0.9 | 1.7 | 0.00 | 0.00 | 0.00 | 9 | 1015.2 |
| 20260901001457 | 75 | 315 | 0.9 | 1.7 | 0.00 | 0.00 | 0.00 | 9 | 1015.2 |
| 20260901001032 | 75 | 270 | 0.9 | 1.7 | 0.00 | 0.00 | 0.00 | 9 | 1015.1 |
| 20260901000646 | 75 | 292 | 1.7 | 2.6 | 0.00 | 0.00 | 0.00 | 9 | 1015.2 |
| 20260901000612 | 75 | 292 | 1.7 | 2.6 | 0.00 | 0.00 | 0.00 | 9 | 1015.2 |
| 20260901000148 | 75 | 292 | 1.7 | 1.7 | 0.00 | 0.00 | 0.00 | 9 | 1015.2 |
| 20260831235652 | 75 | 292 | 1.7 | 1.7 | 0.00 | 0.00 | 0.00 | 9 | 1015.0 |
| 20260831235102 | 75 | 270 | 1.7 | 2.6 | 0.00 | 0.00 | 0.00 | 9 | 1015.2 |
| 20260831234620 | 75 | 292 | 1.7 | 2.6 | 0.00 | 0.00 | 0.00 | 9 | 1015.3 |
| 20260831234200 | 76 | 180 | 1.7 | 1.7 | 0.00 | 0.00 | 0.00 | 9 | 1015.1 |
| 20260831233712 | 76 | 0 | 0.0 | 0.0 | 0.00 | 0.00 | 0.00 | 9 | 1015.1 |
| 20260831233243 | 76 | 0 | 0.0 | 0.0 | 0.00 | 0.00 | 0.00 | 9 | 1015.0 |
| 20260831232752 | 76 | 180 | 0.0 | 1.7 | 0.00 | 0.00 | 0.00 | 9 | 1015.2 |
| 20260831232242 | 76 | 135 | 0.9 | 1.7 | 0.00 | 0.00 | 0.00 | 9 | 1015.1 |
| 20260831231845 | 77 | 135 | 0.0 | 0.9 | 0.00 | 0.00 | 0.00 | 9 | 1015.2 |
| 20260831231410 | 77 | 0 | 0.0 | 0.0 | 0.00 | 0.00 | 0.00 | 9 | 1015.1 |
| 20260831231405 | 77 | 0 | 0.0 | 0.0 | 0.00 | 0.00 | 0.00 | 9 | 1015.1 |
| 20260831230937 | 77 | 0 | 0.0 | 0.0 | 0.00 | 0.00 | 0.00 | 9 | 1015.1 |
| 20260831230517 | 77 | 0 | 0.0 | 0.0 | 0.00 | 0.00 | 0.00 | 9 | 1015.1 |
| 20260831230052 | 77 | 0 | 0.0 | 0.0 | 0.00 | 0.00 | 0.00 | 9 | 1015.1 |
| 20260831225628 | 77 | 112 | 0.0 | 1.7 | 0.00 | 0.00 | 0.00 | 9 | 1015.1 |
| 20260831225626 | 77 | 112 | 0.0 | 1.7 | 0.00 | 0.00 | 0.00 | 9 | 1015.1 |
| 20260831225306 | 77 | 112 | 0.9 | 2.6 | 0.00 | 0.00 | 0.00 | 9 | 1015.1 |
| 20260831225246 | 77 | 112 | 0.9 | 1.7 | 0.00 | 0.00 | 0.00 | 9 | 1015.0 |
| 20260831224811 | 77 | 90 | 0.9 | 1.7 | 0.00 | 0.00 | 0.00 | 9 | 1015.2 |
| 20260831224359 | 77 | 90 | 1.7 | 2.6 | 0.00 | 0.00 | 0.00 | 9 | 1015.1 |
| 20260831223955 | 77 | 112 | 2.6 | 3.5 | 0.00 | 0.00 | 0.00 | 9 | 1015.0 |
| 20260831223554 | 77 | 90 | 1.7 | 1.7 | 0.00 | 0.00 | 0.00 | 9 | 1014.9 |
| 20260831223545 | 77 | 67 | 0.9 | 1.7 | 0.00 | 0.00 | 0.00 | 9 | 1015.0 |
| 20260831223128 | 77 | 90 | 1.7 | 2.6 | 0.00 | 0.00 | 0.00 | 9 | 1014.9 |
| 20260831222717 | 77 | 112 | 2.6 | 3.5 | 0.00 | 0.00 | 0.00 | 9 | 1015.0 |
| 20260831222433 | 77 | 90 | 2.6 | 3.5 | 0.00 | 0.00 | 0.00 | 9 | 1015.0 |
| 20260831221937 | 77 | 90 | 2.6 | 5.2 | 0.00 | 0.00 | 0.00 | 9 | 1015.0 |
| 20260831221519 | 77 | 90 | 2.6 | 3.5 | 0.00 | 0.00 | 0.00 | 9 | 1015.1 |
| 20260831221034 | 78 | 90 | 1.7 | 2.6 | 0.00 | 0.00 | 0.00 | 9 | 1014.8 |
| 20260831220618 | 78 | 112 | 2.6 | 3.5 | 0.00 | 0.00 | 0.00 | 9 | 1014.9 |
| 20260831220152 | 78 | 112 | 1.7 | 2.6 | 0.00 | 0.00 | 0.00 | 9 | 1014.8 |
| 20260831215658 | 78 | 112 | 2.6 | 3.5 | 0.00 | 0.00 | 0.00 | 9 | 1014.8 |
| 20260831215527 | 78 | 112 | 2.6 | 3.5 | 0.00 | 0.00 | 0.00 | 9 | 1014.8 |
| 20260831215052 | 78 | 112 | 4.3 | 7.0 | 0.00 | 0.00 | 0.00 | 9 | 1014.7 |
| 20260831214602 | 78 | 112 | 0.9 | 2.6 | 0.00 | 0.00 | 0.00 | 9 | 1014.6 |
| 20260831214130 | 78 | 67 | 2.6 | 3.5 | 0.00 | 0.00 | 0.00 | 9 | 1014.7 |
| 20260831213713 | 78 | 90 | 3.5 | 5.2 | 0.00 | 0.00 | 0.00 | 9 | 1014.6 |
| 20260831213248 | 78 | 90 | 3.5 | 5.2 | 0.00 | 0.00 | 0.00 | 9 | 1014.7 |
| 20260831212753 | 78 | 67 | 0.9 | 2.6 | 0.00 | 0.00 | 0.00 | 9 | 1014.6 |
| 20260831212306 | 78 | 67 | 0.9 | 2.6 | 0.00 | 0.00 | 0.00 | 9 | 1014.6 |
| 20260831211902 | 78 | 90 | 1.7 | 2.6 | 0.00 | 0.00 | 0.00 | 9 | 1014.6 |
| 20260831211422 | 78 | 90 | 2.6 | 5.2 | 0.00 | 0.00 | 0.00 | 9 | 1014.4 |
| 20260831211016 | 78 | 90 | 3.5 | 5.2 | 0.00 | 0.00 | 0.00 | 9 | 1014.5 |
| 20260831210602 | 78 | 90 | 3.5 | 5.2 | 0.00 | 0.00 | 0.00 | 9 | 1014.3 |
| 20260831210113 | 78 | 90 | 4.3 | 7.0 | 0.00 | 0.00 | 0.00 | 9 | 1014.4 |
| 20260831205700 | 78 | 90 | 3.5 | 5.2 | 0.00 | 0.00 | 0.00 | 9 | 1014.4 |
| 20260831205531 | 78 | 90 | 3.5 | 5.2 | 0.00 | 0.00 | 0.00 | 9 | 1014.4 |
| 20260831205049 | 78 | 90 | 4.3 | 5.2 | 0.00 | 0.00 | 0.00 | 9 | 1014.3 |
| 20260831204601 | 78 | 90 | 2.6 | 5.2 | 0.00 | 0.00 | 0.00 | 9 | 1014.3 |
| 20260831204129 | 78 | 112 | 5.2 | 7.8 | 0.00 | 0.00 | 0.00 | 9 | 1014.3 |
| 20260831203711 | 78 | 90 | 2.6 | 5.2 | 0.00 | 0.00 | 0.00 | 9 | 1014.3 |
| 20260831203246 | 78 | 90 | 2.6 | 5.2 | 0.00 | 0.00 | 0.00 | 9 | 1014.2 |
| 20260831202751 | 78 | 112 | 4.3 | 7.0 | 0.00 | 0.00 | 0.00 | 9 | 1014.3 |
| 20260831202316 | 78 | 135 | 5.2 | 5.2 | 0.00 | 0.00 | 0.00 | 9 | 1014.3 |
| 20260831201848 | 78 | 90 | 4.3 | 7.0 | 0.00 | 0.00 | 0.00 | 9 | 1014.1 |
| 20260831201437 | 78 | 90 | 5.2 | 7.0 | 0.00 | 0.00 | 0.00 | 9 | 1014.0 |
| 20260831201005 | 78 | 90 | 5.2 | 7.0 | 0.00 | 0.00 | 0.00 | 9 | 1014.0 |
| 20260831200603 | 78 | 90 | 5.2 | 8.7 | 0.00 | 0.00 | 0.00 | 9 | 1013.9 |
| 20260831200120 | 78 | 67 | 5.2 | 7.0 | 0.00 | 0.00 | 0.00 | 9 | 1013.9 |
| 20260831195655 | 78 | 112 | 5.2 | 7.0 | 0.00 | 0.00 | 0.00 | 9 | 1013.8 |
| 20260831195420 | 78 | 90 | 4.3 | 7.0 | 0.00 | 0.00 | 0.00 | 9 | 1013.7 |
| 20260831194941 | 78 | 67 | 3.5 | 5.2 | 0.00 | 0.00 | 0.00 | 9 | 1013.7 |
| 20260831194523 | 78 | 90 | 2.6 | 3.5 | 0.00 | 0.00 | 0.00 | 9 | 1013.5 |
| 20260831194038 | 78 | 112 | 2.6 | 5.2 | 0.00 | 0.00 | 0.00 | 9 | 1013.5 |
| 20260831193621 | 78 | 112 | 3.5 | 5.2 | 0.00 | 0.00 | 0.00 | 9 | 1013.4 |
| 20260831193156 | 78 | 90 | 6.1 | 10.4 | 0.00 | 0.00 | 0.00 | 9 | 1013.1 |
| 20260831192701 | 78 | 90 | 3.5 | 5.2 | 0.00 | 0.00 | 0.00 | 9 | 1013.0 |
| 20260831192239 | 78 | 90 | 3.5 | 5.2 | 0.00 | 0.00 | 0.00 | 9 | 1013.1 |
| 20260831191824 | 78 | 90 | 2.6 | 5.2 | 0.00 | 0.00 | 0.00 | 9 | 1013.0 |
| 20260831191412 | 78 | 112 | 4.3 | 7.0 | 0.00 | 0.00 | 0.00 | 9 | 1012.9 |
| 20260831191410 | 78 | 112 | 4.3 | 7.0 | 0.00 | 0.00 | 0.00 | 9 | 1012.9 |
| 20260831190940 | 78 | 90 | 5.2 | 7.8 | 0.00 | 0.00 | 0.00 | 8 | 1012.8 |
| 20260831190522 | 78 | 90 | 4.3 | 7.0 | 0.00 | 0.00 | 0.00 | 8 | 1012.9 |
| 20260831190055 | 78 | 90 | 3.5 | 5.2 | 0.00 | 0.00 | 0.00 | 8 | 1012.6 |
| 20260831185630 | 78 | 90 | 5.2 | 7.8 | 0.00 | 0.00 | 0.00 | 8 | 1012.8 |
| 20260831185448 | 78 | 112 | 7.0 | 9.6 | 0.00 | 0.00 | 0.00 | 8 | 1012.7 |
| 20260831185341 | 78 | 112 | 5.2 | 7.8 | 0.00 | 0.00 | 0.00 | 8 | 1012.7 |
| 20260831185016 | 78 | 90 | 5.2 | 7.0 | 0.00 | 0.00 | 0.00 | 8 | 1012.7 |
| 20260831184542 | 78 | 135 | 5.2 | 7.8 | 0.00 | 0.00 | 0.00 | 8 | 1012.6 |
| 20260831184445 | 78 | 135 | 6.1 | 9.6 | 0.00 | 0.00 | 0.00 | 8 | 1012.6 |
| 20260831184102 | 78 | 90 | 4.3 | 9.6 | 0.00 | 0.00 | 0.00 | 8 | 1012.4 |
| 20260831183617 | 78 | 112 | 4.3 | 7.8 | 0.00 | 0.00 | 0.00 | 8 | 1012.5 |
| 20260831183202 | 78 | 90 | 7.8 | 10.4 | 0.00 | 0.00 | 0.00 | 8 | 1012.5 |
| 20260831182752 | 78 | 67 | 5.2 | 7.8 | 0.00 | 0.00 | 0.00 | 8 | 1012.4 |
| 20260831182437 | 78 | 67 | 5.2 | 7.8 | 0.00 | 0.00 | 0.00 | 8 | 1012.3 |
| 20260831182309 | 78 | 67 | 5.2 | 7.8 | 0.00 | 0.00 | 0.00 | 8 | 1012.4 |
| 20260831181941 | 78 | 67 | 6.1 | 9.6 | 0.00 | 0.00 | 0.00 | 8 | 1012.4 |
| 20260831181523 | 78 | 112 | 5.2 | 7.8 | 0.00 | 0.00 | 0.00 | 8 | 1012.4 |
| 20260831181413 | 78 | 135 | 5.2 | 7.8 | 0.00 | 0.00 | 0.00 | 8 | 1012.4 |
| 20260831181109 | 78 | 90 | 4.3 | 5.2 | 0.00 | 0.00 | 0.00 | 8 | 1012.3 |
| 20260831180619 | 78 | 90 | 4.3 | 7.8 | 0.00 | 0.00 | 0.00 | 8 | 1012.4 |
| 20260831180554 | 78 | 90 | 5.2 | 7.0 | 0.00 | 0.00 | 0.00 | 8 | 1012.4 |
| 20260831180127 | 79 | 90 | 5.2 | 8.7 | 0.00 | 0.00 | 0.00 | 8 | 1012.3 |
| 20260831175703 | 79 | 135 | 6.1 | 8.7 | 0.00 | 0.00 | 0.00 | 8 | 1012.3 |
| 20260831175701 | 79 | 135 | 6.1 | 8.7 | 0.00 | 0.00 | 0.00 | 8 | 1012.3 |
| 20260831175328 | 79 | 90 | 6.1 | 8.7 | 0.00 | 0.00 | 0.00 | 8 | 1012.3 |
| 20260831174907 | 79 | 90 | 5.2 | 8.7 | 0.00 | 0.00 | 0.00 | 8 | 1012.3 |
| 20260831174440 | 79 | 112 | 7.0 | 9.6 | 0.00 | 0.00 | 0.00 | 8 | 1012.2 |
| 20260831174422 | 79 | 67 | 3.5 | 7.8 | 0.00 | 0.00 | 0.00 | 8 | 1012.3 |
| 20260831174353 | 79 | 112 | 7.0 | 9.6 | 0.00 | 0.00 | 0.00 | 8 | 1012.2 |
| 20260831173926 | 79 | 135 | 7.0 | 9.6 | 0.00 | 0.00 | 0.00 | 8 | 1012.2 |
| 20260831173517 | 79 | 112 | 7.8 | 11.3 | 0.00 | 0.00 | 0.00 | 8 | 1012.1 |
| 20260831173432 | 79 | 112 | 7.8 | 11.3 | 0.00 | 0.00 | 0.00 | 8 | 1012.1 |
| 20260831173024 | 80 | 90 | 7.8 | 8.7 | 0.00 | 0.00 | 0.00 | 8 | 1012.1 |
| 20260831172619 | 80 | 90 | 6.1 | 9.6 | 0.00 | 0.00 | 0.00 | 8 | 1012.2 |
| 20260831172616 | 80 | 90 | 6.1 | 9.6 | 0.00 | 0.00 | 0.00 | 8 | 1012.2 |
| 20260831172153 | 80 | 112 | 7.0 | 9.6 | 0.00 | 0.00 | 0.00 | 8 | 1012.1 |
| 20260831172047 | 80 | 135 | 7.8 | 10.4 | 0.00 | 0.00 | 0.00 | 8 | 1012.0 |
| 20260831171617 | 80 | 67 | 7.0 | 10.4 | 0.00 | 0.00 | 0.00 | 8 | 1012.1 |
| 20260831171258 | 80 | 112 | 7.0 | 9.6 | 0.00 | 0.00 | 0.00 | 8 | 1012.0 |
| 20260831171205 | 80 | 90 | 7.0 | 13.0 | 0.00 | 0.00 | 0.00 | 8 | 1012.0 |
| 20260831170758 | 80 | 112 | 7.8 | 13.0 | 0.00 | 0.00 | 0.00 | 8 | 1011.9 |
| 20260831170412 | 81 | 90 | 6.1 | 8.7 | 0.00 | 0.00 | 0.00 | 8 | 1012.1 |
| 20260831170341 | 81 | 90 | 6.1 | 8.7 | 0.00 | 0.00 | 0.00 | 8 | 1012.1 |
| 20260831165848 | 81 | 112 | 7.8 | 10.4 | 0.00 | 0.00 | 0.00 | 8 | 1012.0 |
| 20260831165453 | 81 | 67 | 7.0 | 9.6 | 0.00 | 0.00 | 0.00 | 8 | 1012.0 |
| 20260831165354 | 81 | 90 | 7.0 | 9.6 | 0.00 | 0.00 | 0.00 | 8 | 1012.0 |
| 20260831164907 | 81 | 112 | 7.8 | 11.3 | 0.00 | 0.00 | 0.00 | 8 | 1011.9 |
| 20260831164538 | 81 | 112 | 8.7 | 11.3 | 0.00 | 0.00 | 0.00 | 8 | 1012.1 |
| 20260831164456 | 81 | 67 | 7.8 | 10.4 | 0.00 | 0.00 | 0.00 | 8 | 1012.1 |
| 20260831164021 | 81 | 112 | 6.1 | 8.7 | 0.00 | 0.00 | 0.00 | 8 | 1012.2 |
| 20260831163538 | 82 | 67 | 7.8 | 11.3 | 0.00 | 0.00 | 0.00 | 7 | 1012.2 |
| 20260831163121 | 82 | 67 | 7.0 | 9.6 | 0.00 | 0.00 | 0.00 | 7 | 1012.1 |
| 20260831162713 | 82 | 90 | 9.6 | 13.0 | 0.00 | 0.00 | 0.00 | 7 | 1012.1 |
| 20260831162711 | 82 | 90 | 9.6 | 13.0 | 0.00 | 0.00 | 0.00 | 7 | 1012.1 |
| 20260831162549 | 82 | 90 | 9.6 | 13.0 | 0.00 | 0.00 | 0.00 | 7 | 1012.1 |
| 20260831162440 | 82 | 90 | 7.8 | 10.4 | 0.00 | 0.00 | 0.00 | 7 | 1012.3 |
| 20260831162023 | 82 | 67 | 5.2 | 8.7 | 0.00 | 0.00 | 0.00 | 7 | 1012.3 |
| 20260831161653 | 82 | 45 | 8.7 | 13.0 | 0.00 | 0.00 | 0.00 | 7 | 1012.4 |
| 20260831161537 | 82 | 90 | 9.6 | 14.8 | 0.00 | 0.00 | 0.00 | 7 | 1012.3 |
| 20260831161058 | 82 | 90 | 8.7 | 13.0 | 0.00 | 0.00 | 0.00 | 7 | 1012.2 |
| 20260831160702 | 83 | 112 | 7.8 | 13.0 | 0.00 | 0.00 | 0.00 | 7 | 1012.3 |
| 20260831160629 | 83 | 112 | 7.8 | 13.0 | 0.00 | 0.00 | 0.00 | 7 | 1012.3 |
| 20260831160156 | 84 | 67 | 7.8 | 10.4 | 0.00 | 0.00 | 0.00 | 7 | 1012.4 |
| 20260831155702 | 83 | 90 | 7.8 | 11.3 | 0.00 | 0.00 | 0.00 | 6 | 1012.4 |
| 20260831155354 | 83 | 67 | 7.8 | 11.3 | 0.00 | 0.00 | 0.00 | 6 | 1012.3 |
| 20260831154950 | 84 | 90 | 7.8 | 13.0 | 0.00 | 0.00 | 0.00 | 6 | 1012.3 |
| 20260831154534 | 84 | 90 | 7.8 | 13.0 | 0.00 | 0.00 | 0.00 | 6 | 1012.3 |
| 20260831154104 | 84 | 135 | 10.4 | 13.0 | 0.00 | 0.00 | 0.00 | 6 | 1012.3 |
| 20260831153648 | 84 | 90 | 7.0 | 10.4 | 0.00 | 0.00 | 0.00 | 6 | 1012.3 |
| 20260831153220 | 84 | 90 | 7.8 | 9.6 | 0.00 | 0.00 | 0.00 | 6 | 1012.3 |
| 20260831152755 | 84 | 112 | 10.4 | 13.0 | 0.00 | 0.00 | 0.00 | 6 | 1012.4 |
| 20260831152508 | 84 | 90 | 7.8 | 11.3 | 0.00 | 0.00 | 0.00 | 6 | 1012.5 |
| 20260831152420 | 84 | 90 | 7.8 | 11.3 | 0.00 | 0.00 | 0.00 | 6 | 1012.5 |
| 20260831151957 | 84 | 112 | 7.8 | 9.6 | 0.00 | 0.00 | 0.00 | 6 | 1012.3 |
| 20260831151519 | 84 | 45 | 7.8 | 13.0 | 0.00 | 0.00 | 0.00 | 6 | 1012.4 |
| 20260831151116 | 84 | 90 | 10.4 | 13.0 | 0.00 | 0.00 | 0.00 | 6 | 1012.5 |
| 20260831150646 | 84 | 112 | 8.7 | 13.0 | 0.00 | 0.00 | 0.00 | 6 | 1012.4 |
| 20260831150156 | 84 | 90 | 7.8 | 11.3 | 0.00 | 0.00 | 0.00 | 6 | 1012.5 |
| 20260831145704 | 84 | 90 | 9.6 | 13.0 | 0.00 | 0.00 | 0.00 | 7 | 1012.4 |
| 20260831145435 | 84 | 90 | 10.4 | 14.8 | 0.00 | 0.00 | 0.00 | 7 | 1012.5 |
| 20260831145359 | 84 | 90 | 10.4 | 13.0 | 0.00 | 0.00 | 0.00 | 7 | 1012.5 |
| 20260831144946 | 84 | 90 | 7.8 | 10.4 | 0.00 | 0.00 | 0.00 | 7 | 1012.4 |
| 20260831144558 | 85 | 90 | 6.1 | 10.4 | 0.00 | 0.00 | 0.00 | 7 | 1012.4 |
| 20260831144522 | 85 | 90 | 6.1 | 10.4 | 0.00 | 0.00 | 0.00 | 7 | 1012.4 |
| 20260831144103 | 84 | 67 | 7.8 | 13.0 | 0.00 | 0.00 | 0.00 | 7 | 1012.6 |
| 20260831143613 | 84 | 112 | 7.8 | 13.0 | 0.00 | 0.00 | 0.00 | 7 | 1012.6 |
| 20260831143549 | 84 | 112 | 6.1 | 9.6 | 0.00 | 0.00 | 0.00 | 7 | 1012.7 |
| 20260831143122 | 84 | 112 | 7.8 | 10.4 | 0.00 | 0.00 | 0.00 | 7 | 1012.5 |
| 20260831142656 | 84 | 90 | 7.8 | 13.0 | 0.00 | 0.00 | 0.00 | 7 | 1012.7 |
| 20260831142330 | 84 | 90 | 8.7 | 13.0 | 0.00 | 0.00 | 0.00 | 7 | 1012.5 |
| 20260831141939 | 84 | 90 | 9.6 | 13.0 | 0.00 | 0.00 | 0.00 | 7 | 1012.6 |
| 20260831141517 | 84 | 90 | 7.0 | 10.4 | 0.00 | 0.00 | 0.00 | 7 | 1012.5 |
| 20260831141451 | 84 | 90 | 7.0 | 10.4 | 0.00 | 0.00 | 0.00 | 7 | 1012.6 |
| 20260831141053 | 83 | 67 | 8.7 | 13.0 | 0.00 | 0.00 | 0.00 | 7 | 1012.7 |
| 20260831140603 | 84 | 67 | 7.8 | 13.0 | 0.00 | 0.00 | 0.00 | 7 | 1012.7 |
| 20260831140137 | 83 | 112 | 10.4 | 14.8 | 0.00 | 0.00 | 0.00 | 7 | 1012.8 |
| 20260831135712 | 83 | 67 | 7.8 | 11.3 | 0.00 | 0.00 | 0.00 | 7 | 1012.8 |
| 20260831135414 | 83 | 67 | 7.8 | 8.7 | 0.00 | 0.00 | 0.00 | 7 | 1012.8 |
| 20260831135231 | 83 | 90 | 11.3 | 15.6 | 0.00 | 0.00 | 0.00 | 7 | 1012.8 |
| 20260831134949 | 84 | 90 | 7.8 | 11.3 | 0.00 | 0.00 | 0.00 | 7 | 1012.8 |
| 20260831134504 | 83 | 90 | 10.4 | 13.0 | 0.00 | 0.00 | 0.00 | 7 | 1012.7 |
| 20260831134336 | 84 | 135 | 7.8 | 13.0 | 0.00 | 0.00 | 0.00 | 7 | 1012.9 |
| 20260831134044 | 84 | 67 | 9.6 | 11.3 | 0.00 | 0.00 | 0.00 | 7 | 1012.8 |
| 20260831133544 | 84 | 90 | 7.0 | 10.4 | 0.00 | 0.00 | 0.00 | 7 | 1012.8 |
| 20260831133512 | 84 | 90 | 9.6 | 11.3 | 0.00 | 0.00 | 0.00 | 7 | 1012.8 |
| 20260831133054 | 84 | 90 | 8.7 | 11.3 | 0.00 | 0.00 | 0.00 | 7 | 1012.9 |
| 20260831132644 | 84 | 67 | 6.1 | 9.6 | 0.00 | 0.00 | 0.00 | 7 | 1012.9 |
| 20260831132235 | 84 | 90 | 7.8 | 13.0 | 0.00 | 0.00 | 0.00 | 7 | 1013.1 |
| 20260831131754 | 84 | 112 | 7.8 | 9.6 | 0.00 | 0.00 | 0.00 | 7 | 1013.1 |
| 20260831131254 | 84 | 135 | 9.6 | 13.0 | 0.00 | 0.00 | 0.00 | 7 | 1012.9 |
| 20260831130831 | 84 | 112 | 9.6 | 13.0 | 0.00 | 0.00 | 0.00 | 7 | 1012.9 |
| 20260831130401 | 84 | 90 | 7.8 | 9.6 | 0.00 | 0.00 | 0.00 | 7 | 1013.0 |
| 20260831125927 | 85 | 90 | 5.2 | 7.8 | 0.00 | 0.00 | 0.00 | 7 | 1013.3 |
| 20260831125457 | 85 | 90 | 4.3 | 7.0 | 0.00 | 0.00 | 0.00 | 7 | 1013.2 |
| 20260831125035 | 84 | 90 | 7.8 | 13.0 | 0.00 | 0.00 | 0.00 | 7 | 1013.1 |
| 20260831124555 | 0 | 0 | 0.0 | 0.0 | 0.00 | 0.00 | 0.00 | 100 | |
| 20260831124108 | 84 | 112 | 7.8 | 10.4 | 0.00 | 0.00 | 0.00 | 7 | 1013.3 |
| 20260831123700 | 84 | 112 | 7.8 | 10.4 | 0.00 | 0.00 | 0.00 | 7 | 1013.3 |
| 20260831123221 | 83 | 90 | 7.8 | 10.4 | 0.00 | 0.00 | 0.00 | 7 | 1013.5 |
| 20260831122758 | 0 | 0 | 0.0 | 0.0 | 0.00 | 0.00 | 0.00 | 100 | |
| 20260831122331 | 0 | 0 | 0.0 | 0.0 | 0.00 | 0.00 | 0.00 | 100 | |
| 20260831121910 | 84 | 112 | 7.8 | 10.4 | 0.00 | 0.00 | 0.00 | 7 | 1013.5 |
| 20260831121444 | 84 | 112 | 7.8 | 10.4 | 0.00 | 0.00 | 0.00 | 7 | 1013.5 |
| 20260831121010 | 83 | 112 | 8.7 | 11.3 | 0.00 | 0.00 | 0.00 | 7 | 1013.6 |
| 20260831120607 | 83 | 112 | 9.6 | 13.0 | 0.00 | 0.00 | 0.00 | 7 | 1013.5 |
| 20260831120125 | 85 | 112 | 6.1 | 8.7 | 0.00 | 0.00 | 0.00 | 7 | 1013.7 |
| 20260831115700 | 84 | 112 | 8.7 | 10.4 | 0.00 | 0.00 | 0.00 | 7 | 1013.6 |
| 20260831115455 | 84 | 112 | 7.8 | 10.4 | 0.00 | 0.00 | 0.00 | 7 | 1013.6 |
| 20260831115045 | 84 | 90 | 5.2 | 7.8 | 0.00 | 0.00 | 0.00 | 7 | 1013.6 |
| 20260831114620 | 84 | 112 | 7.8 | 10.4 | 0.00 | 0.00 | 0.00 | 7 | 1013.5 |
| 20260831114132 | 85 | 90 | 5.2 | 7.8 | 0.00 | 0.00 | 0.00 | 7 | 1013.6 |
| 20260831113752 | 84 | 90 | 5.2 | 10.4 | 0.00 | 0.00 | 0.00 | 7 | 1013.5 |
| 20260831113715 | 84 | 90 | 5.2 | 10.4 | 0.00 | 0.00 | 0.00 | 7 | 1013.5 |
| 20260831113250 | 84 | 90 | 5.2 | 9.6 | 0.00 | 0.00 | 0.00 | 7 | 1013.7 |
| 20260831112758 | 83 | 90 | 2.6 | 5.2 | 0.00 | 0.00 | 0.00 | 7 | 1013.7 |
| 20260831112755 | 83 | 90 | 2.6 | 5.2 | 0.00 | 0.00 | 0.00 | 7 | 1013.7 |
| 20260831112405 | 84 | 90 | 5.2 | 7.0 | 0.00 | 0.00 | 0.00 | 7 | 1013.7 |
| 20260831112256 | 84 | 112 | 5.2 | 7.8 | 0.00 | 0.00 | 0.00 | 7 | 1013.7 |
| 20260831112005 | 83 | 90 | 6.1 | 8.7 | 0.00 | 0.00 | 0.00 | 7 | 1013.8 |
| 20260831111548 | 83 | 112 | 6.1 | 8.7 | 0.00 | 0.00 | 0.00 | 7 | 1013.7 |
| 20260831111359 | 83 | 112 | 7.8 | 10.4 | 0.00 | 0.00 | 0.00 | 7 | 1013.8 |
| 20260831111055 | 83 | 112 | 6.1 | 9.6 | 0.00 | 0.00 | 0.00 | 7 | 1013.9 |
| 20260831110605 | 83 | 90 | 6.1 | 9.6 | 0.00 | 0.00 | 0.00 | 7 | 1013.9 |
| 20260831110532 | 83 | 90 | 6.1 | 9.6 | 0.00 | 0.00 | 0.00 | 7 | 1013.9 |
| 20260831110117 | 84 | 112 | 5.2 | 7.8 | 0.00 | 0.00 | 0.00 | 7 | 1013.9 |
| 20260831105705 | 83 | 112 | 5.2 | 8.7 | 0.00 | 0.00 | 0.00 | 7 | 1013.9 |
| 20260831105433 | 83 | 112 | 5.2 | 7.0 | 0.00 | 0.00 | 0.00 | 7 | 1014.1 |
| 20260831104947 | 83 | 90 | 5.2 | 7.8 | 0.00 | 0.00 | 0.00 | 7 | 1014.1 |
| 20260831104640 | 83 | 112 | 4.3 | 7.0 | 0.00 | 0.00 | 0.00 | 7 | 1014.1 |
| 20260831104511 | 83 | 135 | 5.2 | 8.7 | 0.00 | 0.00 | 0.00 | 7 | 1014.2 |
| 20260831104025 | 84 | 112 | 5.2 | 8.7 | 0.00 | 0.00 | 0.00 | 7 | 1014.2 |
| 20260831103640 | 82 | 90 | 0.9 | 2.6 | 0.00 | 0.00 | 0.00 | 7 | 1014.1 |
| 20260831103608 | 82 | 90 | 0.9 | 2.6 | 0.00 | 0.00 | 0.00 | 7 | 1014.1 |
| 20260831103143 | 82 | 90 | 5.2 | 8.7 | 0.00 | 0.00 | 0.00 | 7 | 1014.2 |
| 20260831102650 | 83 | 67 | 6.1 | 10.4 | 0.00 | 0.00 | 0.00 | 7 | 1014.2 |
| 20260831102648 | 83 | 67 | 6.1 | 10.4 | 0.00 | 0.00 | 0.00 | 7 | 1014.2 |
| 20260831102236 | 82 | 112 | 5.2 | 7.0 | 0.00 | 0.00 | 0.00 | 7 | 1014.2 |
| 20260831101835 | 83 | 112 | 5.2 | 7.8 | 0.00 | 0.00 | 0.00 | 7 | 1014.1 |
| 20260831101345 | 83 | 112 | 5.2 | 7.0 | 0.00 | 0.00 | 0.00 | 7 | 1014.0 |
| 20260831100942 | 83 | 112 | 6.1 | 8.7 | 0.00 | 0.00 | 0.00 | 7 | 1014.2 |
| 20260831100519 | 82 | 90 | 1.7 | 2.6 | 0.00 | 0.00 | 0.00 | 7 | 1014.1 |
| 20260831100111 | 82 | 112 | 5.2 | 7.8 | 0.00 | 0.00 | 0.00 | 7 | 1014.2 |
| 20260831095702 | 82 | 112 | 5.2 | 7.0 | 0.00 | 0.00 | 0.00 | 7 | 1014.2 |
| 20260831095420 | 82 | 112 | 5.2 | 7.0 | 0.00 | 0.00 | 0.00 | 7 | 1014.3 |
| 20260831094957 | 83 | 112 | 5.2 | 8.7 | 0.00 | 0.00 | 0.00 | 7 | 1014.2 |
| 20260831094508 | 82 | 112 | 5.2 | 8.7 | 0.00 | 0.00 | 0.00 | 7 | 1014.2 |
| 20260831094038 | 83 | 112 | 4.3 | 7.0 | 0.00 | 0.00 | 0.00 | 7 | 1014.3 |
| 20260831093620 | 82 | 90 | 4.3 | 7.0 | 0.00 | 0.00 | 0.00 | 7 | 1014.3 |
| 20260831093155 | 83 | 112 | 2.6 | 3.5 | 0.00 | 0.00 | 0.00 | 7 | 1014.2 |
| 20260831092700 | 82 | 112 | 5.2 | 7.8 | 0.00 | 0.00 | 0.00 | 7 | 1014.0 |
| 20260831092316 | 82 | 90 | 6.1 | 9.6 | 0.00 | 0.00 | 0.00 | 7 | 1014.0 |
| 20260831092313 | 82 | 112 | 7.0 | 9.6 | 0.00 | 0.00 | 0.00 | 7 | 1014.0 |
| 20260831091905 | 81 | 90 | 5.2 | 8.7 | 0.00 | 0.00 | 0.00 | 7 | 1014.2 |
| 20260831091425 | 82 | 112 | 6.1 | 8.7 | 0.00 | 0.00 | 0.00 | 7 | 1013.9 |
| 20260831091006 | 82 | 112 | 4.3 | 7.8 | 0.00 | 0.00 | 0.00 | 7 | 1013.9 |
| 20260831090547 | 82 | 112 | 2.6 | 5.2 | 0.00 | 0.00 | 0.00 | 7 | 1014.0 |
| 20260831090120 | 81 | 90 | 3.5 | 7.0 | 0.00 | 0.00 | 0.00 | 7 | 1014.0 |
| 20260831085657 | 81 | 90 | 4.3 | 7.8 | 0.00 | 0.00 | 0.00 | 7 | 1013.8 |
| 20260831085449 | 81 | 112 | 5.2 | 7.0 | 0.00 | 0.00 | 0.00 | 7 | 1013.9 |
| 20260831085029 | 82 | 90 | 1.7 | 5.2 | 0.00 | 0.00 | 0.00 | 7 | 1013.7 |
| 20260831084610 | 81 | 90 | 2.6 | 5.2 | 0.00 | 0.00 | 0.00 | 7 | 1013.9 |
| 20260831084126 | 81 | 90 | 1.7 | 2.6 | 0.00 | 0.00 | 0.00 | 7 | 1013.8 |
| 20260831083710 | 80 | 0 | 0.0 | 0.9 | 0.00 | 0.00 | 0.00 | 7 | 1013.6 |
| 20260831083245 | 80 | 67 | 0.9 | 2.6 | 0.00 | 0.00 | 0.00 | 7 | 1013.6 |
| 20260831082750 | 79 | 0 | 0.0 | 0.9 | 0.00 | 0.00 | 0.00 | 8 | 1013.5 |
| 20260831082442 | 79 | 67 | 2.6 | 3.5 | 0.00 | 0.00 | 0.00 | 8 | 1013.6 |
| 20260831081944 | 79 | 90 | 2.6 | 3.5 | 0.00 | 0.00 | 0.00 | 8 | 1013.5 |
| 20260831081526 | 79 | 90 | 2.6 | 5.2 | 0.00 | 0.00 | 0.00 | 8 | 1013.5 |
| 20260831081043 | 80 | 202 | 0.9 | 1.7 | 0.00 | 0.00 | 0.00 | 7 | 1013.4 |
| 20260831080626 | 79 | 0 | 0.0 | 0.9 | 0.00 | 0.00 | 0.00 | 8 | 1013.2 |
| 20260831080201 | 79 | 0 | 0.9 | 1.7 | 0.00 | 0.00 | 0.00 | 8 | 1013.3 |
| 20260831075706 | 77 | 0 | 0.0 | 0.0 | 0.00 | 0.00 | 0.00 | 8 | 1013.3 |
| 20260831075306 | 77 | 0 | 0.0 | 0.0 | 0.00 | 0.00 | 0.00 | 8 | 1013.3 |
| 20260831074842 | 76 | 270 | 0.9 | 1.7 | 0.00 | 0.00 | 0.00 | 8 | 1013.3 |
| 20260831074423 | 76 | 270 | 0.9 | 0.9 | 0.00 | 0.00 | 0.00 | 8 | 1013.3 |
| 20260831073939 | 76 | 292 | 0.9 | 1.7 | 0.00 | 0.00 | 0.00 | 8 | 1013.2 |
| 20260831073522 | 75 | 0 | 0.0 | 0.0 | 0.00 | 0.00 | 0.00 | 8 | 1013.3 |
| 20260831073057 | 75 | 292 | 0.9 | 1.7 | 0.00 | 0.00 | 0.00 | 8 | 1013.3 |
| 20260831072602 | 75 | 292 | 0.0 | 1.7 | 0.00 | 0.00 | 0.00 | 8 | 1013.1 |
| 20260831072359 | 75 | 270 | 0.9 | 1.7 | 0.00 | 0.00 | 0.00 | 8 | 1013.3 |
| 20260831071937 | 74 | 292 | 0.9 | 0.9 | 0.00 | 0.00 | 0.00 | 9 | 1013.3 |
| 20260831071523 | 74 | 270 | 0.0 | 0.9 | 0.00 | 0.00 | 0.00 | 9 | 1013.3 |
| 20260831071053 | 73 | 270 | 0.9 | 0.9 | 0.00 | 0.00 | 0.00 | 9 | 1013.2 |
| 20260831070635 | 73 | 292 | 0.0 | 0.9 | 0.00 | 0.00 | 0.00 | 9 | 1013.2 |
| 20260831070209 | 73 | 292 | 0.0 | 0.9 | 0.00 | 0.00 | 0.00 | 9 | 1013.1 |
| 20260831065744 | 73 | 315 | 0.0 | 0.9 | 0.00 | 0.00 | 0.00 | 9 | 1013.0 |
| 20260831065412 | 73 | 0 | 0.0 | 0.0 | 0.00 | 0.00 | 0.00 | 9 | 1013.1 |
| 20260831065358 | 73 | 315 | 0.9 | 1.7 | 0.00 | 0.00 | 0.00 | 9 | 1013.1 |
| 20260831064944 | 73 | 315 | 0.0 | 0.9 | 0.00 | 0.00 | 0.00 | 9 | 1013.0 |
| 20260831064532 | 73 | 0 | 0.0 | 0.0 | 0.00 | 0.00 | 0.00 | 9 | 1013.0 |
| 20260831064503 | 73 | 0 | 0.0 | 0.0 | 0.00 | 0.00 | 0.00 | 9 | 1013.0 |
| 20260831064100 | 72 | 0 | 0.0 | 0.0 | 0.00 | 0.00 | 0.00 | 9 | 1012.9 |
| 20260831063642 | 72 | 0 | 0.0 | 0.0 | 0.00 | 0.00 | 0.00 | 9 | 1012.8 |
| 20260831063215 | 72 | 0 | 0.0 | 0.0 | 0.00 | 0.00 | 0.00 | 9 | 1012.8 |
| 20260831062751 | 72 | 0 | 0.0 | 0.0 | 0.00 | 0.00 | 0.00 | 9 | 1012.8 |
| 20260831062505 | 72 | 0 | 0.0 | 0.0 | 0.00 | 0.00 | 0.00 | 9 | 1012.7 |
| 20260831062300 | 71 | 0 | 0.0 | 0.0 | 0.00 | 0.00 | 0.00 | 9 | 1012.7 |
| 20260831062009 | 71 | 0 | 0.0 | 0.9 | 0.00 | 0.00 | 0.00 | 9 | 1012.6 |
| 20260831061521 | 71 | 0 | 0.0 | 0.0 | 0.00 | 0.00 | 0.00 | 9 | 1012.5 |
| 20260831061437 | 71 | 0 | 0.0 | 0.0 | 0.00 | 0.00 | 0.00 | 9 | 1012.5 |
| 20260831061102 | 71 | 0 | 0.0 | 0.0 | 0.00 | 0.00 | 0.00 | 9 | 1012.5 |
| 20260831060613 | 71 | 0 | 0.0 | 0.0 | 0.00 | 0.00 | 0.00 | 9 | 1012.5 |
| 20260831060547 | 70 | 0 | 0.0 | 0.0 | 0.00 | 0.00 | 0.00 | 9 | 1012.4 |
| 20260831060122 | 70 | 0 | 0.0 | 0.0 | 0.00 | 0.00 | 0.00 | 9 | 1012.4 |
| 20260831055656 | 70 | 0 | 0.0 | 0.0 | 0.00 | 0.00 | 0.00 | 9 | 1012.3 |
| 20260831055354 | 70 | 270 | 0.0 | 0.9 | 0.00 | 0.00 | 0.00 | 9 | 1012.4 |
| 20260831055300 | 70 | 270 | 0.9 | 0.9 | 0.00 | 0.00 | 0.00 | 9 | 1012.2 |
| 20260831054855 | 70 | 270 | 0.0 | 0.9 | 0.00 | 0.00 | 0.00 | 9 | 1012.4 |
| 20260831054435 | 70 | 270 | 0.9 | 1.7 | 0.00 | 0.00 | 0.00 | 9 | 1012.5 |
| 20260831054010 | 70 | 270 | 2.6 | 2.6 | 0.00 | 0.00 | 0.00 | 9 | 1012.2 |
| 20260831053520 | 70 | 292 | 1.7 | 2.6 | 0.00 | 0.00 | 0.00 | 9 | 1012.1 |
| 20260831053107 | 70 | 270 | 2.6 | 3.5 | 0.00 | 0.00 | 0.00 | 9 | 1012.1 |
| 20260831052701 | 71 | 292 | 1.7 | 2.6 | 0.00 | 0.00 | 0.00 | 9 | 1012.1 |
| 20260831052446 | 71 | 292 | 2.6 | 2.6 | 0.00 | 0.00 | 0.00 | 9 | 1012.2 |
| 20260831052042 | 70 | 292 | 1.7 | 1.7 | 0.00 | 0.00 | 0.00 | 9 | 1012.1 |
| 20260831051529 | 70 | 292 | 1.7 | 1.7 | 0.00 | 0.00 | 0.00 | 9 | 1012.2 |
| 20260831051052 | 71 | 292 | 2.6 | 2.6 | 0.00 | 0.00 | 0.00 | 9 | 1012.2 |
| 20260831050601 | 71 | 292 | 2.6 | 2.6 | 0.00 | 0.00 | 0.00 | 9 | 1012.1 |
| 20260831050529 | 71 | 292 | 2.6 | 2.6 | 0.00 | 0.00 | 0.00 | 9 | 1012.1 |
| 20260831050113 | 70 | 292 | 1.7 | 2.6 | 0.00 | 0.00 | 0.00 | 9 | 1012.2 |
| 20260831045702 | 71 | 292 | 2.6 | 2.6 | 0.00 | 0.00 | 0.00 | 9 | 1012.2 |
| 20260831045424 | 71 | 292 | 2.6 | 2.6 | 0.00 | 0.00 | 0.00 | 9 | 1012.1 |
| 20260831045015 | 71 | 292 | 2.6 | 3.5 | 0.00 | 0.00 | 0.00 | 9 | 1012.2 |
| 20260831044530 | 71 | 292 | 2.6 | 3.5 | 0.00 | 0.00 | 0.00 | 9 | 1012.1 |
| 20260831044057 | 71 | 292 | 1.7 | 2.6 | 0.00 | 0.00 | 0.00 | 9 | 1012.1 |
| 20260831043608 | 71 | 292 | 2.6 | 3.5 | 0.00 | 0.00 | 0.00 | 9 | 1012.2 |
| 20260831043121 | 71 | 292 | 2.6 | 3.5 | 0.00 | 0.00 | 0.00 | 9 | 1012.0 |
| 20260831042706 | 70 | 270 | 2.6 | 3.5 | 0.00 | 0.00 | 0.00 | 9 | 1012.0 |
| 20260831042435 | 70 | 270 | 1.7 | 1.7 | 0.00 | 0.00 | 0.00 | 9 | 1012.0 |
| 20260831042231 | 70 | 270 | 1.7 | 2.6 | 0.00 | 0.00 | 0.00 | 9 | 1012.1 |
| 20260831041830 | 70 | 270 | 2.6 | 2.6 | 0.00 | 0.00 | 0.00 | 9 | 1012.1 |
| 20260831041435 | 70 | 270 | 1.7 | 1.7 | 0.00 | 0.00 | 0.00 | 9 | 1012.1 |
| 20260831041403 | 70 | 270 | 1.7 | 2.6 | 0.00 | 0.00 | 0.00 | 9 | 1012.1 |
| 20260831040945 | 70 | 270 | 1.7 | 2.6 | 0.00 | 0.00 | 0.00 | 9 | 1012.1 |
| 20260831040513 | 70 | 270 | 1.7 | 1.7 | 0.00 | 0.00 | 0.00 | 9 | 1012.2 |
| 20260831040112 | 71 | 270 | 1.7 | 1.7 | 0.00 | 0.00 | 0.00 | 9 | 1012.1 |
| 20260831035703 | 71 | 292 | 2.6 | 2.6 | 0.00 | 0.00 | 0.00 | 9 | 1012.2 |
| 20260831035347 | 71 | 270 | 2.6 | 2.6 | 0.00 | 0.00 | 0.00 | 9 | 1012.2 |
| 20260831034932 | 71 | 292 | 2.6 | 2.6 | 0.00 | 0.00 | 0.00 | 9 | 1012.3 |
| 20260831034442 | 71 | 270 | 1.7 | 1.7 | 0.00 | 0.00 | 0.00 | 9 | 1012.2 |
| 20260831034036 | 70 | 292 | 0.9 | 1.7 | 0.00 | 0.00 | 0.00 | 9 | 1012.1 |
| 20260831033627 | 70 | 292 | 1.7 | 2.6 | 0.00 | 0.00 | 0.00 | 9 | 1012.0 |
| 20260831033209 | 70 | 292 | 1.7 | 1.7 | 0.00 | 0.00 | 0.00 | 9 | 1012.1 |
| 20260831032759 | 70 | 292 | 2.6 | 2.6 | 0.00 | 0.00 | 0.00 | 9 | 1012.0 |
| 20260831032506 | 70 | 292 | 1.7 | 1.7 | 0.00 | 0.00 | 0.00 | 9 | 1012.0 |
| 20260831032313 | 71 | 292 | 2.6 | 2.6 | 0.00 | 0.00 | 0.00 | 9 | 1012.0 |
| 20260831031903 | 71 | 292 | 1.7 | 2.6 | 0.00 | 0.00 | 0.00 | 9 | 1012.2 |
| 20260831031545 | 71 | 270 | 1.7 | 1.7 | 0.00 | 0.00 | 0.00 | 9 | 1012.1 |
| 20260831031451 | 70 | 270 | 0.9 | 1.7 | 0.00 | 0.00 | 0.00 | 9 | 1012.0 |
| 20260831031017 | 71 | 270 | 0.9 | 0.9 | 0.00 | 0.00 | 0.00 | 9 | 1012.0 |
| 20260831030647 | 71 | 270 | 0.9 | 1.7 | 0.00 | 0.00 | 0.00 | 9 | 1012.1 |
| 20260831030603 | 71 | 270 | 1.7 | 1.7 | 0.00 | 0.00 | 0.00 | 9 | 1012.0 |
| 20260831030155 | 71 | 0 | 0.0 | 0.9 | 0.00 | 0.00 | 0.00 | 9 | 1012.1 |
| 20260831025704 | 71 | 270 | 0.0 | 0.9 | 0.00 | 0.00 | 0.00 | 9 | 1012.0 |
| 20260831025516 | 71 | 270 | 0.0 | 0.9 | 0.00 | 0.00 | 0.00 | 9 | 1012.0 |
| 20260831025411 | 72 | 270 | 0.0 | 0.9 | 0.00 | 0.00 | 0.00 | 9 | 1012.1 |
| 20260831025040 | 72 | 270 | 0.9 | 1.7 | 0.00 | 0.00 | 0.00 | 9 | 1012.1 |
| 20260831024528 | 72 | 0 | 0.0 | 0.9 | 0.00 | 0.00 | 0.00 | 9 | 1011.9 |
| 20260831024133 | 72 | 270 | 0.0 | 0.9 | 0.00 | 0.00 | 0.00 | 9 | 1012.0 |
| 20260831023638 | 72 | 270 | 0.9 | 1.7 | 0.00 | 0.00 | 0.00 | 9 | 1012.0 |
| 20260831023211 | 72 | 270 | 1.7 | 2.6 | 0.00 | 0.00 | 0.00 | 9 | 1012.1 |
| 20260831022746 | 72 | 270 | 1.7 | 1.7 | 0.00 | 0.00 | 0.00 | 9 | 1012.2 |